sat.trackr.live / text

‹ back to catalog

STARLINK-35928

NORAD 66528 · 2025-265N

PAYLOAD ACTIVE UNKNOWN

§ Identity

Operator
Country
US
Launch date
2025-11-19
Launch site
AFETR
Launch vehicle
Mass (kg)
RCS (m²)

Purposes: comms

External: N2YO · Heavens-Above · Gunter

§ Orbital elements

Epoch: 2026-09-20T08:01:14.044512Z

Period
94.27 min
Inclination
43.0002°
Eccentricity
0.0001425
Mean motion
15.27583904 rev/d
Perigee alt
482.1 km
Apogee alt
484.0 km
Semi-major
6,861.2 km
B*
3.3292e-4
RAAN
258.5240°
Arg perigee
272.6192°
Mean anomaly
87.4497°
Rev number
4,688

§ Raw data

STARLINK-359281 66528U 25265N   26263.33419033  .00008911  00000+0  33292-3 0  99922 66528  43.0002 258.5240 0001425 272.6192  87.4497 15.27583904 46884

JSON: /api/v1/satellites/66528 · /tle

For live sub-satellite position, see the globe view (requires WebGL).

§ Visibility from observer

Set your observer location to see the next 7 days of passes ≥ 10°. The values pass through the URL so the page stays shareable.

No JS? Fill the form by hand. The geolocation button needs JavaScript.